Cut Bank, MT

8:57 AM MDT on October 20, 2019 (GMT -0600)
Cut Bank Municipal

Weather History for KCTB - August, 2019

Change the Weather History Date:

Tuesday, August 27, 2019

  Actual Average Record
Temperature  
Mean Temperature 58 °F 61 °F  
Max Temperature 77 °F 76 °F 93 °F (1971)
Min Temperature 38 °F 46 °F 29 °F (1911)
Degree Days  
Heating Degree Days 8 5  
Month to date heating degree days 70 84  
Since 1 June heating degree days 385 403  
Since 1 July heating degree days 163 170  
Cooling Degree Days 0 1  
Month to date cooling degree days 51 61  
Year to date cooling degree days 104 150  
Since 1 June cooling degree days 104 148  
Growing Degree Days 8 (Base 50)    
Moisture  
Dew Point 37 °F    
Average Humidity 52    
Maximum Humidity 89    
Minimum Humidity 19    
Precipitation  
Precipitation 0.00 in 0.04 in 0.82 in (1946)
Month to date precipitation 1.38 1.03  
Year to date precipitation 8.79 8.50  
Snow  
Snow 0.00 in - - ()
Snow Depth 0.00 in    
Sea Level Pressure  
Sea Level Pressure 30.12 in    
Wind  
Wind Speed 6 mph ()    
Max Wind Speed 17 mph    
Max Gust Speed 28 mph    
Visibility 10.0 miles    
Events      
T = Trace of Precipitation, MM = Missing Value Source: Averaged Metar Reports

Daily Weather History Graph

Daily Weather History Graph

Search for Another Location

Airport or City:

Astronomy

Aug. 27, 2019 Rise Set
Actual Time 6:39 AM MDT 8:21 PM MDT
Civil Twilight 6:06 AM MDT 8:54 PM MDT
Nautical Twilight 5:25 AM MDT 9:35 PM MDT
Astronomical Twilight 4:40 AM MDT 10:19 PM MDT
Moon 2:49 AM MDT (8/27) 7:02 PM MDT (8/27)
Length of Visible Light 14h 48m
Length of Day
13h 42m
Waning Crescent, 10% of the Moon is Illuminated
Aug 27
Waning Crescent
Aug 30
New
Sep 5
First Quarter
Sep 13
Full
Sep 21
Last Quarter

Hourly Weather History & Observations

Time (MDT) Temp. Windchill Dew Point Humidity Pressure Visibility Wind Dir Wind Speed Gust Speed Precip Events Conditions
12:56 AM 51.1 °F - 41.0 °F 68% 30.22 in 10.0 mi NNW 3.5 mph - N/A   Overcast
1:56 AM 48.0 °F - 42.1 °F 80% 30.24 in 10.0 mi North 6.9 mph - N/A   Overcast
2:56 AM 43.0 °F 41.3 °F 39.9 °F 89% 30.25 in 10.0 mi West 3.5 mph - N/A   Clear
3:56 AM 42.1 °F 38.4 °F 37.9 °F 85% 30.24 in 10.0 mi West 5.8 mph - N/A   Scattered Clouds
4:56 AM 39.9 °F 35.8 °F 36.0 °F 86% 30.24 in 10.0 mi WSW 5.8 mph - N/A   Partly Cloudy
5:56 AM 39.0 °F 36.8 °F 36.0 °F 89% 30.24 in 10.0 mi NNW 3.5 mph - N/A   Clear
6:56 AM 39.0 °F 36.8 °F 35.1 °F 86% 30.25 in 10.0 mi North 3.5 mph - N/A   Clear
7:56 AM 44.1 °F - 39.0 °F 82% 30.24 in 10.0 mi Calm Calm - N/A   Clear
8:56 AM 48.9 °F - 39.0 °F 69% 30.24 in 10.0 mi Calm Calm - N/A   Clear
9:56 AM 55.0 °F - 39.9 °F 57% 30.21 in 10.0 mi SSE 3.5 mph - N/A   Clear
10:56 AM 62.1 °F - 35.1 °F 37% 30.18 in 10.0 mi SSE 15.0 mph - N/A   Clear
11:56 AM 64.9 °F - 35.1 °F 33% 30.14 in 10.0 mi SSE 15.0 mph 20.7 mph N/A   Clear
12:56 PM 68.0 °F - 36.0 °F 31% 30.11 in 10.0 mi SSW 12.7 mph 16.1 mph N/A   Clear
1:56 PM 70.0 °F - 36.0 °F 29% 30.09 in 10.0 mi SW 8.1 mph - N/A   Clear
2:56 PM 73.0 °F - 34.0 °F 24% 30.06 in 10.0 mi WSW 6.9 mph 23.0 mph N/A   Clear
3:56 PM 75.0 °F - 33.1 °F 22% 30.03 in 10.0 mi SW 9.2 mph - N/A   Clear
4:56 PM 75.9 °F - 30.9 °F 19% 30.01 in 10.0 mi WSW 11.5 mph - N/A   Clear
5:56 PM 75.9 °F - 32.0 °F 20% 30.01 in 10.0 mi West 8.1 mph - N/A   Clear
6:56 PM 73.9 °F - 34.0 °F 23% 30.00 in 10.0 mi WNW 8.1 mph - N/A   Clear
7:56 PM 68.0 °F - 37.0 °F 32% 30.00 in 10.0 mi West 10.4 mph - N/A   Clear
8:56 PM 59.0 °F - 37.9 °F 46% 30.02 in 10.0 mi WNW 8.1 mph - N/A   Clear
9:56 PM 57.0 °F - 37.9 °F 49% 30.01 in 10.0 mi WNW 9.2 mph - N/A   Clear
10:56 PM 54.0 °F - 37.0 °F 53% 29.99 in 10.0 mi WNW 6.9 mph - N/A   Clear
11:56 PM 55.9 °F - 36.0 °F 47% 29.96 in 10.0 mi West 6.9 mph - N/A   Clear